Time,TemperatureF,DewpointF,PressureIn,WindDirection,WindDirectionDegrees,WindSpeedMPH,WindSpeedGustMPH,Humidity,HourlyPrecipIn,Conditions,Clouds,dailyrainin,SoftwareType,DateUTC
2013-11-19 00:00:00,30.0,18.0,-100.00,North,-999,-999.0,-999.0,59,-99.99,,,-99.99,,2013-11-19 07:00:00,
2013-11-19 00:42:00,30.0,18.0,-100.00,North,-999,-999.0,-999.0,59,-99.99,,,-99.99,,2013-11-19 07:42:00,
2013-11-19 00:52:00,30.0,18.0,-100.00,North,-999,-999.0,-999.0,59,-99.99,,,-99.99,,2013-11-19 07:52:00,
2013-11-19 01:00:00,31.0,19.0,-100.00,North,-999,-999.0,-999.0,62,-99.99,,,-99.99,,2013-11-19 08:00:00,
2013-11-19 01:42:00,31.0,19.0,-100.00,North,-999,-999.0,-999.0,62,-99.99,,,-99.99,,2013-11-19 08:42:00,
2013-11-19 01:52:00,31.0,19.0,-100.00,North,-999,-999.0,-999.0,62,-99.99,,,-99.99,,2013-11-19 08:52:00,
2013-11-19 02:00:00,31.0,21.0,-100.00,North,-999,-999.0,-999.0,67,-99.99,,,-99.99,,2013-11-19 09:00:00,
2013-11-19 02:43:00,31.0,21.0,-100.00,North,-999,-999.0,-999.0,67,-99.99,,,-99.99,,2013-11-19 09:43:00,
2013-11-19 02:53:00,31.0,21.0,-100.00,North,-999,-999.0,-999.0,67,-99.99,,,-99.99,,2013-11-19 09:53:00,
2013-11-19 03:00:00,31.0,20.0,-100.00,North,-999,-999.0,-999.0,63,-99.99,,,-99.99,,2013-11-19 10:00:00,
2013-11-19 03:43:00,31.0,20.0,-100.00,North,-999,-999.0,-999.0,63,-99.99,,,-99.99,,2013-11-19 10:43:00,
2013-11-19 03:53:00,31.0,20.0,-100.00,North,-999,-999.0,-999.0,63,-99.99,,,-99.99,,2013-11-19 10:53:00,
2013-11-19 04:00:00,32.0,18.0,-100.00,North,-999,-999.0,-999.0,55,-99.99,,,-99.99,,2013-11-19 11:00:00,
2013-11-19 04:42:00,32.0,18.0,-100.00,North,-999,-999.0,-999.0,55,-99.99,,,-99.99,,2013-11-19 11:42:00,
2013-11-19 04:52:00,32.0,18.0,-100.00,North,-999,-999.0,-999.0,55,-99.99,,,-99.99,,2013-11-19 11:52:00,
2013-11-19 05:00:00,31.0,20.0,-100.00,North,-999,-999.0,-999.0,64,-99.99,,,-99.99,,2013-11-19 12:00:00,
2013-11-19 05:42:00,31.0,20.0,-100.00,North,-999,-999.0,-999.0,64,-99.99,,,-99.99,,2013-11-19 12:42:00,
2013-11-19 05:52:00,31.0,20.0,-100.00,North,-999,-999.0,-999.0,64,-99.99,,,-99.99,,2013-11-19 12:52:00,
2013-11-19 06:00:00,30.0,23.0,-100.00,North,-999,-999.0,-999.0,74,-99.99,,,-99.99,,2013-11-19 13:00:00,
2013-11-19 06:42:00,30.0,23.0,-100.00,North,-999,-999.0,-999.0,74,-99.99,,,-99.99,,2013-11-19 13:42:00,
2013-11-19 06:52:00,30.0,23.0,-100.00,North,-999,-999.0,-999.0,74,-99.99,,,-99.99,,2013-11-19 13:52:00,
2013-11-19 07:00:00,31.0,26.0,-100.00,North,-999,-999.0,-999.0,81,-99.99,,,-99.99,,2013-11-19 14:00:00,
2013-11-19 07:42:00,31.0,26.0,-100.00,North,-999,-999.0,-999.0,81,-99.99,,,-99.99,,2013-11-19 14:42:00,
2013-11-19 07:52:00,31.0,26.0,-100.00,North,-999,-999.0,-999.0,81,-99.99,,,-99.99,,2013-11-19 14:52:00,
2013-11-19 08:00:00,31.0,28.0,-100.00,North,-999,-999.0,-999.0,90,-99.99,,,-99.99,,2013-11-19 15:00:00,
2013-11-19 08:43:00,31.0,28.0,-100.00,North,-999,-999.0,-999.0,90,-99.99,,,-99.99,,2013-11-19 15:43:00,
2013-11-19 08:54:00,31.0,28.0,-100.00,North,-999,-999.0,-999.0,90,-99.99,,,-99.99,,2013-11-19 15:54:00,
2013-11-19 09:00:00,31.0,29.0,-100.00,North,-999,-999.0,-999.0,92,-99.99,,,-99.99,,2013-11-19 16:00:00,
2013-11-19 09:43:00,31.0,29.0,-100.00,North,-999,-999.0,-999.0,92,-99.99,,,-99.99,,2013-11-19 16:43:00,
2013-11-19 09:52:00,31.0,29.0,-100.00,North,-999,-999.0,-999.0,92,-99.99,,,-99.99,,2013-11-19 16:52:00,
2013-11-19 10:00:00,32.0,27.0,-100.00,North,-999,-999.0,-999.0,80,-99.99,,,-99.99,,2013-11-19 17:00:00,
2013-11-19 10:43:00,32.0,27.0,-100.00,North,-999,-999.0,-999.0,80,-99.99,,,-99.99,,2013-11-19 17:43:00,
2013-11-19 10:52:00,32.0,27.0,-100.00,North,-999,-999.0,-999.0,80,-99.99,,,-99.99,,2013-11-19 17:52:00,
2013-11-19 11:00:00,33.0,27.0,-100.00,North,-999,-999.0,-999.0,78,-99.99,,,-99.99,,2013-11-19 18:00:00,
2013-11-19 11:42:00,33.0,27.0,-100.00,North,-999,-999.0,-999.0,78,-99.99,,,-99.99,,2013-11-19 18:42:00,
2013-11-19 11:52:00,33.0,27.0,-100.00,North,-999,-999.0,-999.0,78,-99.99,,,-99.99,,2013-11-19 18:52:00,
2013-11-19 12:00:00,33.0,25.0,-100.00,North,-999,-999.0,-999.0,71,-99.99,,,-99.99,,2013-11-19 19:00:00,
2013-11-19 12:42:00,33.0,25.0,-100.00,North,-999,-999.0,-999.0,71,-99.99,,,-99.99,,2013-11-19 19:42:00,
2013-11-19 12:52:00,33.0,25.0,-100.00,North,-999,-999.0,-999.0,71,-99.99,,,-99.99,,2013-11-19 19:52:00,
2013-11-19 14:00:00,34.0,22.0,-100.00,North,-999,-999.0,-999.0,62,-99.99,,,-99.99,,2013-11-19 21:00:00,
2013-11-19 14:43:00,34.0,22.0,-100.00,North,-999,-999.0,-999.0,62,-99.99,,,-99.99,,2013-11-19 21:43:00,
2013-11-19 14:54:00,34.0,22.0,-100.00,North,-999,-999.0,-999.0,62,-99.99,,,-99.99,,2013-11-19 21:54:00,
2013-11-19 15:00:00,34.0,22.0,-100.00,North,-999,-999.0,-999.0,59,-99.99,,,-99.99,,2013-11-19 22:00:00,
2013-11-19 15:43:00,34.0,22.0,-100.00,North,-999,-999.0,-999.0,59,-99.99,,,-99.99,,2013-11-19 22:43:00,
2013-11-19 15:53:00,34.0,22.0,-100.00,North,-999,-999.0,-999.0,59,-99.99,,,-99.99,,2013-11-19 22:53:00,